Temp
-7 -7 -7 -7 -7 -7 -7 -7 -7 -7 -7 -8 -9 -10 -10 -9 -9 -9 -9 -9 -8 -8 -8 -8 -9 -9 -9 -9 -9 -9 -8 -7 -7 -8 -8 -8 -8 -8 -7 -7 -7 -8 -8 -7 -7
-7 -7 -7 -7 -7 -7 -7 -7 -7 -7 -8 -9 -10 -11 -11 -10 -10 -10 -10 -10 -9 -9 -9 -9 -9 -9 -9 -9 -9 -9 -9 -8 -8 -8 -8 -9 -8 -8 -7 -7 -7 -7 -9 -7 -7
-7 -7 -7 -7 -7 -7 -7 -7 -7 -8 -8 -9 -10 -11 -11 -11 -11 -11 -11 -10 -10 -9 -9 -9 -9 -9 -9 -9 -9 -9 -8 -9 -8 -9 -9 -9 -9 -7 -7 -7 -7 -8 -8 -8 -7
-8 -7 -8 -7 -8 -8 -7 -8 -8 -8 -9 -9 -10 -11 -11 -11 -11 -11 -11 -11 -10 -10 -10 -9 -9 -10 -10 -10 -10 -9 -9 -9 -9 -9 -9 -8 -9 -8 -7 -7 -6 -7 -7 -7 -7
-8 -8 -8 -8 -8 -8 -8 -8 -8 -8 -9 -9 -10 -11 -11 -11 -11 -11 -11 -11 -11 -10 -10 -10 -10 -10 -10 -10 -10 -9 -9 -9 -9 -9 -9 -9 -8 -9 -8 -7 -7 -7 -7 -7 -7
-8 -8 -8 -8 -8 -8 -8 -8 -9 -9 -9 -10 -10 -11 -12 -11 -11 -11 -11 -11 -11 -11 -11 -10 -10 -10 -10 -10 -10 -10 -9 -9 -9 -9 -10 -10 -8 -9 -8 -8 -7 -8 -7 -8 -6
-8 -8 -8 -8 -8 -8 -8 -8 -9 -10 -10 -10 -11 -12 -12 -12 -11 -12 -11 -11 -11 -11 -11 -11 -11 -11 -10 -11 -10 -10 -10 -9 -9 -9 -9 -10 -11 -7 -9 -8 -7 -8 -8 -7 -6
-8 -8 -8 -8 -8 -9 -9 -9 -10 -10 -11 -11 -11 -12 -12 -12 -12 -11 -12 -12 -11 -11 -11 -11 -11 -11 -10 -11 -10 -10 -10 -9 -9 -9 -9 -10 -9 -10 -10 -10 -10 -9 -9 -8 -8
-8 -8 -8 -9 -9 -9 -9 -10 -11 -11 -11 -11 -12 -12 -12 -12 -12 -12 -12 -12 -11 -12 -11 -11 -11 -11 -11 -11 -11 -10 -10 -10 -10 -10 -9 -9 -9 -10 -11 -11 -11 -11 -10 -8 -8
-9 -9 -9 -9 -10 -10 -10 -10 -11 -12 -12 -12 -12 -12 -12 -12 -12 -12 -12 -12 -12 -12 -12 -11 -11 -11 -11 -11 -10 -10 -10 -10 -10 -10 -10 -9 -9 -10 -10 -12 -9 -9 -9 -9 -9
-9 -9 -9 -10 -10 -10 -10 -11 -12 -12 -12 -12 -12 -12 -12 -12 -13 -13 -13 -13 -13 -12 -12 -12 -11 -11 -11 -11 -11 -11 -11 -10 -10 -11 -10 -10 -9 -10 -11 -11 -10 -10 -10 -7 -10
-9 -9 -10 -10 -10 -11 -11 -11 -12 -12 -13 -12 -12 -12 -13 -12 -13 -14 -13 -13 -13 -13 -12 -12 -12 -12 -12 -12 -11 -11 -11 -11 -11 -11 -11 -11 -10 -10 -10 -10 -10 -10 -11 -10 -9
-10 -10 -10 -10 -10 -11 -11 -12 -12 -12 -13 -13 -13 -13 -13 -13 -13 -14 -12 -13 -13 -13 -13 -12 -12 -13 -12 -12 -12 -12 -12 -12 -12 -12 -11 -11 -11 -10 -10 -10 -10 -10 -10 -10 -11
-10 -10 -10 -10 -11 -11 -11 -12 -13 -13 -13 -13 -13 -13 -13 -13 -13 -13 -13 -13 -13 -13 -13 -13 -13 -13 -13 -12 -13 -12 -13 -12 -12 -12 -12 -12 -11 -11 -10 -10 -10 -10 -10 -9 -9
-10 -10 -10 -11 -11 -11 -12 -12 -13 -13 -13 -13 -14 -14 -14 -14 -14 -14 -14 -14 -14 -14 -13 -13 -14 -14 -13 -13 -14 -12 -14 -13 -13 -12 -12 -12 -11 -10 -11 -10 -10 -10 -10 -9 -9
-10 -11 -11 -11 -11 -12 -12 -12 -13 -13 -13 -13 -13 -14 -14 -14 -14 -15 -15 -14 -14 -14 -14 -14 -14 -14 -14 -14 -14 -15 -15 -14 -14 -13 -12 -11 -12 -10 -10 -10 -10 -10 -11 -10 -10
-11 -11 -11 -11 -12 -12 -12 -13 -13 -13 -13 -13 -13 -13 -14 -15 -14 -15 -15 -15 -15 -15 -15 -15 -15 -15 -15 -14 -14 -15 -15 -15 -15 -14 -11 -12 -13 -11 -11 -11 -11 -11 -12 -12 -12
-11 -11 -11 -12 -12 -12 -13 -13 -13 -13 -13 -13 -14 -14 -14 -15 -16 -16 -15 -15 -16 -16 -15 -15 -16 -16 -16 -15 -15 -15 -16 -16 -16 -15 -13 -15 -12 -11 -12 -12 -12 -12 -12 -12 -12
-12 -12 -12 -12 -12 -13 -13 -13 -13 -13 -13 -13 -14 -14 -15 -15 -16 -17 -17 -17 -16 -17 -17 -16 -16 -17 -16 -17 -16 -16 -17 -17 -17 -15 -15 -15 -12 -12 -12 -12 -12 -12 -12 -12 -12
-12 -12 -12 -13 -13 -13 -13 -13 -13 -13 -14 -14 -14 -15 -15 -16 -17 -17 -17 -17 -17 -17 -17 -17 -17 -17 -17 -16 -16 -17 -17 -17 -17 -16 -16 -15 -14 -14 -14 -13 -13 -13 -12 -12 -12
-13 -13 -13 -13 -13 -13 -13 -13 -13 -14 -14 -15 -15 -16 -16 -17 -17 -18 -17 -17 -18 -17 -18 -17 -17 -17 -17 -18 -17 -17 -17 -17 -17 -17 -17 -16 -15 -15 -15 -14 -14 -13 -13 -13 -12
-13 -13 -13 -13 -14 -14 -14 -14 -14 -15 -15 -16 -17 -17 -17 -18 -18 -19 -19 -18 -18 -18 -18 -18 -18 -18 -18 -18 -18 -18 -17 -17 -17 -17 -17 -17 -17 -16 -15 -15 -15 -15 -14 -13 -12
-13 -13 -14 -14 -14 -14 -15 -15 -15 -16 -17 -17 -18 -18 -18 -19 -19 -19 -19 -19 -19 -19 -19 -19 -18 -19 -18 -18 -17 -17 -17 -17 -17 -17 -17 -17 -17 -16 -16 -16 -16 -15 -15 -14 -13
-13 -14 -14 -14 -14 -15 -15 -16 -17 -17 -18 -18 -18 -19 -19 -20 -21 -20 -20 -20 -20 -20 -20 -19 -19 -19 -19 -19 -19 -18 -18 -18 -18 -17 -17 -17 -17 -17 -17 -17 -16 -16 -16 -15 -14
-14 -14 -14 -15 -15 -15 -15 -16 -17 -18 -18 -18 -19 -20 -21 -21 -22 -22 -22 -22 -22 -21 -21 -20 -20 -20 -19 -19 -19 -19 -19 -19 -18 -18 -18 -17 -16 -17 -17 -17 -17 -17 -16 -15 -15
-15 -15 -15 -16 -16 -16 -16 -17 -18 -18 -19 -20 -21 -22 -22 -23 -23 -23 -23 -24 -23 -22 -22 -22 -22 -21 -21 -21 -21 -21 -21 -20 -20 -19 -18 -17 -17 -17 -17 -18 -17 -16 -16 -16 -15
-15 -15 -16 -16 -17 -17 -17 -18 -18 -19 -20 -21 -22 -23 -24 -24 -24 -24 -24 -24 -24 -24 -24 -24 -24 -24 -23 -23 -23 -22 -23 -22 -22 -20 -19 -19 -17 -17 -17 -17 -17 -17 -17 -16 -16
Height
5859 5857 5854 5852 5849 5846 5842 5839 5836 5832 5828 5824 5823 5822 5822 5822 5822 5824 5825 5824 5827 5830 5831 5833 5836 5838 5842 5846 5851 5854 5858 5866 5873 5877 5880 5883 5886 5891 5895 5897 5902 5904 5906 5904 5905
5855 5853 5850 5848 5844 5840 5837 5833 5829 5825 5820 5817 5814 5814 5814 5814 5815 5815 5818 5817 5818 5824 5826 5827 5829 5831 5835 5839 5843 5846 5852 5863 5867 5870 5869 5871 5877 5885 5892 5893 5900 5901 5903 5905 5904
5852 5849 5846 5843 5839 5835 5830 5826 5821 5817 5813 5809 5807 5806 5807 5807 5807 5807 5809 5810 5812 5816 5818 5820 5822 5826 5829 5832 5836 5839 5848 5857 5860 5862 5862 5865 5870 5875 5884 5889 5894 5899 5901 5904 5903
5848 5845 5841 5837 5834 5829 5825 5820 5814 5809 5805 5802 5800 5798 5799 5799 5800 5802 5803 5804 5805 5807 5811 5812 5815 5819 5823 5826 5828 5832 5843 5847 5852 5855 5856 5858 5865 5867 5875 5883 5886 5887 5890 5896 5899
5844 5840 5836 5832 5828 5824 5819 5813 5807 5803 5799 5795 5793 5792 5793 5793 5791 5795 5795 5796 5798 5799 5803 5804 5807 5811 5815 5818 5820 5825 5835 5838 5844 5847 5849 5848 5856 5858 5867 5874 5880 5880 5885 5890 5893
5839 5836 5832 5827 5823 5818 5813 5807 5801 5797 5792 5789 5787 5786 5787 5785 5786 5786 5788 5789 5790 5792 5794 5798 5801 5803 5806 5810 5813 5818 5824 5828 5833 5840 5840 5839 5846 5846 5856 5864 5870 5875 5878 5881 5885
5834 5831 5826 5822 5818 5812 5807 5802 5796 5791 5786 5783 5781 5780 5781 5779 5780 5778 5781 5782 5783 5784 5786 5789 5792 5795 5800 5803 5805 5811 5815 5819 5826 5833 5834 5834 5837 5840 5851 5853 5862 5866 5872 5877 5881
5830 5827 5822 5817 5812 5807 5802 5796 5790 5785 5781 5777 5775 5775 5774 5775 5773 5773 5774 5776 5777 5778 5780 5782 5785 5788 5792 5796 5799 5803 5807 5812 5821 5825 5829 5826 5833 5839 5845 5843 5850 5856 5863 5869 5873
5825 5822 5817 5811 5806 5801 5795 5790 5786 5780 5776 5773 5771 5770 5769 5770 5769 5768 5768 5769 5770 5771 5773 5776 5779 5783 5786 5789 5792 5795 5800 5806 5813 5815 5818 5819 5823 5831 5833 5830 5834 5845 5852 5861 5866
5821 5817 5813 5806 5800 5795 5790 5786 5781 5777 5771 5769 5767 5766 5766 5766 5764 5763 5763 5764 5765 5766 5767 5769 5772 5776 5780 5781 5786 5790 5794 5798 5804 5806 5806 5810 5813 5817 5820 5822 5837 5838 5837 5845 5856
5817 5811 5807 5801 5794 5789 5784 5780 5776 5774 5765 5766 5764 5760 5759 5759 5760 5759 5759 5758 5759 5760 5762 5763 5766 5770 5773 5775 5779 5781 5784 5789 5795 5797 5796 5801 5802 5806 5810 5811 5823 5832 5835 5839 5843
5811 5806 5801 5794 5789 5783 5778 5773 5770 5769 5764 5758 5758 5757 5753 5756 5756 5752 5753 5754 5753 5755 5755 5757 5760 5762 5764 5766 5770 5773 5776 5780 5784 5786 5786 5790 5793 5797 5802 5805 5811 5824 5826 5835 5839
5805 5800 5795 5790 5784 5778 5772 5768 5763 5761 5759 5756 5753 5752 5751 5750 5751 5746 5748 5748 5749 5748 5749 5751 5753 5754 5756 5759 5761 5764 5767 5770 5773 5775 5776 5779 5783 5788 5796 5799 5802 5813 5821 5827 5833
5800 5796 5791 5785 5780 5772 5766 5761 5757 5754 5753 5750 5748 5745 5745 5744 5745 5743 5742 5743 5743 5744 5744 5743 5745 5746 5748 5750 5751 5753 5756 5757 5761 5765 5769 5767 5772 5780 5788 5792 5794 5803 5813 5819 5825
5795 5791 5786 5779 5774 5768 5762 5756 5752 5749 5746 5744 5741 5741 5740 5739 5737 5736 5737 5736 5737 5736 5738 5740 5739 5739 5739 5740 5741 5746 5744 5746 5750 5753 5756 5764 5763 5777 5778 5782 5788 5795 5804 5810 5813
5789 5785 5780 5773 5767 5761 5755 5751 5747 5745 5741 5738 5734 5732 5732 5732 5730 5729 5729 5729 5729 5730 5729 5732 5732 5732 5731 5731 5733 5734 5735 5737 5739 5741 5746 5758 5755 5762 5773 5777 5781 5786 5788 5796 5802
5783 5778 5773 5768 5761 5754 5749 5745 5742 5739 5737 5734 5730 5725 5722 5722 5723 5721 5720 5719 5720 5721 5721 5722 5725 5724 5722 5724 5725 5723 5725 5727 5729 5731 5739 5744 5745 5753 5766 5770 5774 5776 5776 5779 5785
5775 5771 5766 5761 5754 5748 5744 5740 5735 5732 5728 5726 5723 5720 5716 5713 5711 5710 5711 5709 5708 5709 5709 5711 5714 5715 5713 5715 5718 5716 5716 5718 5717 5724 5730 5730 5737 5748 5752 5754 5756 5763 5766 5769 5773
5768 5762 5758 5753 5747 5742 5738 5733 5728 5725 5721 5715 5712 5709 5708 5705 5702 5699 5698 5696 5697 5697 5698 5698 5701 5703 5703 5705 5706 5708 5709 5710 5709 5714 5716 5721 5730 5734 5736 5741 5744 5750 5755 5759 5763
5761 5755 5750 5745 5739 5734 5729 5724 5719 5715 5710 5705 5701 5698 5694 5693 5692 5687 5684 5684 5684 5684 5684 5682 5684 5691 5692 5692 5695 5697 5700 5701 5702 5703 5705 5711 5719 5720 5723 5729 5734 5738 5743 5747 5752
5752 5747 5741 5735 5730 5725 5719 5714 5709 5704 5699 5693 5688 5683 5680 5677 5674 5673 5670 5669 5669 5670 5668 5668 5669 5677 5681 5680 5683 5685 5687 5690 5693 5694 5695 5700 5705 5704 5710 5715 5720 5725 5731 5736 5740
5742 5738 5732 5725 5721 5714 5708 5702 5698 5692 5686 5680 5675 5669 5664 5661 5658 5656 5655 5654 5654 5653 5653 5654 5653 5657 5664 5666 5670 5672 5674 5678 5679 5684 5686 5688 5689 5693 5697 5702 5708 5713 5718 5723 5730
5732 5727 5721 5715 5709 5703 5696 5691 5685 5679 5673 5667 5660 5654 5650 5645 5642 5640 5639 5638 5636 5638 5637 5639 5641 5643 5644 5649 5652 5656 5661 5664 5667 5669 5672 5675 5679 5683 5687 5691 5697 5703 5707 5712 5718
5722 5717 5711 5705 5699 5693 5685 5679 5672 5665 5659 5652 5646 5640 5634 5631 5628 5626 5625 5624 5624 5625 5626 5626 5627 5630 5632 5631 5636 5641 5644 5645 5649 5652 5656 5664 5669 5671 5674 5680 5684 5691 5697 5701 5706
5711 5705 5699 5693 5686 5680 5673 5666 5658 5651 5644 5636 5631 5626 5621 5617 5615 5613 5612 5612 5612 5613 5614 5615 5616 5617 5618 5618 5619 5625 5629 5629 5631 5634 5636 5652 5651 5658 5661 5666 5671 5678 5686 5692 5696
5700 5694 5688 5681 5673 5666 5658 5652 5645 5636 5630 5622 5615 5609 5606 5605 5604 5602 5601 5601 5603 5603 5602 5603 5604 5605 5606 5604 5605 5609 5612 5612 5615 5616 5624 5626 5635 5640 5646 5654 5661 5667 5673 5680 5686
5690 5684 5675 5669 5660 5652 5644 5635 5628 5622 5614 5607 5601 5598 5595 5595 5594 5592 5593 5593 5594 5595 5594 5594 5595 5595 5595 5595 5594 5598 5601 5600 5597 5600 5605 5607 5618 5622 5628 5639 5646 5653 5660 5666 5674
Wind_Speed
21 21 23 21 22 24 28 32 35 38 38 36 33 31 31 30 30 35 31 39 40 39 40 39 39 40 40 41 44 47 46 40 36 35 31 32 35 34 29 25 20 17 22 27 22
21 24 23 23 26 28 30 33 35 38 36 34 33 31 29 28 27 30 34 35 41 39 40 41 40 40 41 41 44 47 47 40 37 36 42 36 39 40 34 31 27 24 14 22 26
22 24 25 28 29 31 32 35 37 39 35 32 30 29 27 28 27 27 31 33 37 40 39 42 42 40 40 41 43 46 44 42 41 39 44 43 40 42 38 37 29 30 33 27 26
24 26 26 27 31 32 34 35 37 38 34 33 30 28 26 28 29 26 26 31 32 38 38 41 43 40 39 40 43 44 41 45 44 43 44 45 44 44 43 37 33 34 42 25 29
26 25 28 31 31 31 34 37 38 35 32 32 31 26 25 26 30 23 26 27 29 33 37 40 43 41 38 39 42 44 39 44 48 47 46 50 45 44 46 45 42 41 37 34 30
25 27 30 30 29 31 33 37 38 33 29 29 27 23 23 27 26 27 27 27 27 30 36 39 40 42 41 40 41 42 42 46 48 51 49 49 52 51 46 45 44 43 43 41 38
25 28 29 30 27 31 33 36 33 29 27 26 23 20 23 26 25 28 27 26 29 30 34 37 39 42 42 40 43 41 42 45 46 48 54 50 49 61 48 50 49 43 42 43 36
27 27 28 29 27 31 33 35 28 25 26 24 20 19 23 24 25 26 27 27 28 30 32 38 40 42 43 41 43 44 44 43 39 45 52 57 53 47 38 49 41 43 48 47 40
28 25 25 27 29 31 31 32 25 24 25 23 18 18 22 22 24 24 25 28 27 30 31 34 38 41 41 42 44 46 45 41 38 41 47 55 59 50 44 48 49 42 42 48 44
28 25 25 27 30 29 30 31 25 22 25 23 19 18 19 20 22 22 23 26 27 27 31 31 35 38 41 43 43 43 44 42 40 38 45 51 56 55 47 52 46 52 53 50 46
29 28 27 27 30 30 29 29 27 21 25 23 19 17 18 19 19 19 21 24 28 28 25 29 32 34 39 42 42 41 43 43 41 39 42 47 54 53 49 51 48 41 61 57 47
28 30 30 29 31 32 31 31 28 23 18 26 24 19 22 17 15 22 23 23 26 28 28 27 29 32 36 40 42 42 42 41 40 39 42 43 51 53 53 53 49 37 42 54 51
28 29 30 31 33 34 34 31 28 27 22 22 24 25 22 24 19 28 28 25 24 26 30 30 28 30 33 38 41 41 42 43 42 40 44 44 48 50 52 54 53 39 39 38 47
31 29 30 32 34 35 34 32 28 28 24 27 24 25 24 25 25 26 30 30 30 28 27 34 32 31 34 36 39 43 42 45 45 44 46 47 51 48 49 53 54 52 41 41 44
33 31 30 34 35 36 33 32 29 28 28 27 24 22 23 25 27 27 27 29 30 33 33 30 33 35 36 36 37 40 42 44 45 47 49 47 54 47 48 50 52 52 45 44 42
34 32 32 35 35 34 31 30 28 27 26 25 26 26 23 24 26 29 30 31 31 33 35 33 35 37 40 38 36 38 39 41 44 46 51 47 51 53 47 46 47 47 47 47 47
33 34 34 34 35 33 31 28 29 27 26 26 26 29 31 30 28 31 32 34 34 34 37 36 34 36 40 42 41 38 40 43 45 47 51 48 49 52 45 45 44 44 47 47 49
36 35 34 36 35 31 30 29 31 30 31 31 29 29 34 35 37 39 38 40 40 39 37 37 34 31 37 39 41 41 40 44 46 46 47 45 49 48 46 47 49 49 49 51 53
36 38 36 39 36 33 31 33 33 34 34 35 37 37 35 39 42 44 45 47 48 48 43 45 45 38 36 37 38 38 39 41 45 48 49 50 47 49 50 49 51 51 52 55 55
37 38 39 38 37 35 34 34 34 35 37 38 39 42 42 40 43 49 51 54 55 54 55 52 50 45 41 40 40 39 39 41 42 48 51 50 48 51 50 49 51 50 50 51 56
38 39 41 42 41 39 39 36 37 39 40 41 43 45 47 47 47 48 53 56 56 59 60 57 57 54 50 47 45 45 45 42 42 45 49 52 52 54 52 51 51 53 50 50 53
39 41 42 43 42 42 41 41 42 42 44 45 47 47 48 49 47 46 44 47 51 54 55 54 53 55 49 53 52 53 52 50 50 45 47 51 54 57 55 52 49 47 48 50 53
40 43 45 45 46 45 46 45 45 45 47 49 51 52 52 51 49 45 42 40 42 44 49 47 48 45 47 49 54 54 55 55 54 55 53 50 52 57 58 57 54 48 45 42 41
45 47 47 48 47 47 47 46 46 49 50 50 52 50 48 45 43 42 40 38 37 38 41 44 44 45 48 49 50 50 53 58 61 62 60 57 54 55 55 57 57 53 49 45 40
47 48 49 50 51 51 49 50 50 51 53 53 52 47 44 40 37 38 36 36 37 38 40 43 45 47 50 52 53 52 50 53 57 60 64 60 63 58 57 51 56 54 52 49 48
47 50 51 51 53 52 53 54 54 53 53 51 47 43 41 36 34 34 35 34 34 34 35 36 38 39 41 44 47 45 46 50 55 58 61 65 64 65 62 60 52 47 48 51 46
47 50 53 53 53 54 56 58 56 54 50 44 42 37 35 32 30 29 26 26 28 27 27 28 23 26 29 30 33 40 32 35 45 56 63 66 65 67 69 65 61 59 56 50 50
Wind_Direction
325 320 314 308 310 314 316 313 311 309 304 295 287 279 273 270 266 252 246 238 238 236 236 236 237 237 234 233 231 228 231 225 224 224 224 225 230 229 228 213 201 178 203 200 175
325 322 312 311 313 315 315 315 313 312 306 296 287 278 275 274 271 259 246 244 239 235 237 238 236 237 237 233 233 232 231 226 225 224 228 208 222 229 214 216 203 196 200 185 181
323 322 314 312 314 314 315 315 314 316 307 299 290 277 271 271 269 266 249 249 243 238 236 237 239 239 239 236 235 235 232 228 227 228 233 227 209 226 217 220 200 208 228 215 194
319 319 317 312 313 316 314 316 315 315 307 300 298 282 267 267 264 262 259 248 250 241 237 237 238 238 240 238 236 237 234 228 227 230 235 240 216 219 212 201 199 214 215 197 200
318 317 317 316 314 315 314 315 316 316 307 303 299 284 264 263 261 256 255 250 248 243 237 235 236 237 237 237 236 235 232 231 226 232 235 240 234 216 219 213 206 211 215 217 219
320 319 318 317 316 317 314 315 318 314 309 308 300 283 269 262 260 256 250 246 243 243 237 236 237 236 235 235 234 234 231 232 227 224 236 245 238 228 208 211 208 210 215 210 207
320 320 320 319 317 317 316 315 320 313 311 311 297 281 271 267 262 255 252 248 239 239 234 234 235 236 235 235 234 233 231 232 230 226 232 240 243 239 237 211 211 220 219 217 223
322 320 320 319 318 315 313 317 319 311 309 312 298 277 272 270 262 260 252 248 243 239 240 237 235 236 236 236 236 236 234 233 233 233 229 238 239 244 251 214 212 220 220 217 220
321 318 316 318 318 317 318 321 321 312 306 309 306 281 275 272 266 256 250 246 245 239 237 240 240 239 237 238 238 238 238 236 236 236 234 236 239 239 241 240 208 215 221 220 221
316 315 318 318 316 319 324 322 322 312 306 306 308 289 274 273 267 259 252 249 247 250 241 239 240 240 242 240 241 244 243 241 237 240 235 236 239 242 241 245 238 225 214 214 216
314 316 322 321 317 318 321 318 317 318 304 303 306 293 271 262 261 262 255 250 250 243 247 245 243 243 241 244 243 244 246 243 239 240 241 236 238 238 242 249 249 228 231 221 216
322 323 324 323 322 320 320 317 317 316 293 300 304 295 292 279 258 258 248 246 248 252 242 241 244 249 246 245 244 243 246 246 241 241 244 240 237 237 239 246 252 242 251 231 222
322 321 323 325 324 325 321 318 314 312 307 295 295 299 290 287 258 252 259 251 248 243 249 246 245 245 247 246 246 246 247 245 244 239 240 240 239 240 238 242 249 244 244 248 237
323 323 322 325 326 325 321 316 314 311 310 304 303 299 295 286 278 270 271 262 258 256 247 244 243 245 244 243 244 243 247 247 246 241 239 241 240 238 239 240 244 246 240 245 247
325 323 321 323 328 326 322 318 315 314 314 311 310 302 296 289 283 275 274 277 266 259 254 250 242 243 244 244 245 245 247 248 247 245 240 239 245 234 239 239 242 248 244 242 245
323 321 322 324 326 323 319 317 313 314 315 309 310 306 294 285 281 278 276 276 269 266 262 255 256 249 244 240 242 245 247 246 246 246 244 240 244 242 237 243 242 242 245 241 240
321 321 319 323 320 321 317 313 310 310 311 307 303 301 296 288 278 273 272 273 266 267 260 257 255 257 255 249 240 239 240 243 243 243 248 242 240 247 243 242 242 239 238 243 235
317 319 317 321 319 318 312 309 307 308 306 303 293 285 282 280 277 275 268 267 263 260 258 251 245 252 255 256 247 242 238 242 245 241 247 242 243 246 243 238 238 235 235 237 239
315 317 318 321 319 315 311 306 306 306 302 298 292 285 277 271 269 266 264 262 261 263 256 255 250 251 249 250 252 247 244 245 247 244 243 240 245 245 242 239 238 236 232 234 235
316 316 315 319 317 313 309 306 303 303 300 298 291 287 280 270 264 263 260 257 255 251 259 254 255 252 254 251 248 251 251 249 248 248 246 245 242 244 245 245 242 241 237 236 236
315 315 316 319 317 313 309 306 305 305 303 298 294 290 285 281 274 264 261 262 260 260 264 252 247 248 247 249 254 255 252 252 252 247 249 247 245 243 243 245 246 247 244 239 238
314 315 316 316 316 313 310 309 309 307 304 300 294 290 288 285 280 277 272 266 263 261 260 263 269 269 262 260 254 253 252 254 256 252 248 249 249 246 246 247 248 249 246 246 241
313 315 317 318 318 316 312 311 310 307 303 300 295 292 290 287 283 277 271 266 262 260 259 257 258 260 259 254 256 253 254 254 252 252 253 250 250 250 250 251 252 254 255 248 248
315 316 317 318 316 315 312 311 309 307 302 297 294 292 288 284 276 271 269 266 262 258 258 259 261 259 260 263 257 255 253 253 252 252 250 248 251 250 251 252 255 254 256 258 251
314 316 318 320 317 316 313 312 309 306 303 298 296 291 288 282 274 268 268 267 266 264 260 260 262 262 261 261 261 257 253 254 252 251 251 249 245 247 249 250 253 253 254 255 256
315 318 318 319 318 316 314 314 311 306 303 302 297 292 286 277 274 269 266 269 266 266 264 261 260 258 257 260 262 261 262 254 249 250 251 250 246 250 246 246 242 250 252 252 250
314 317 318 319 318 316 315 315 311 309 306 302 295 291 288 283 273 273 276 272 271 262 262 262 263 269 270 273 275 265 272 272 265 254 246 247 248 247 249 246 246 240 241 247 248